EW5612 Weather Reports


Display with metric or nautical units.
time (UTC)temp
F
wind
direction
speed
MPH
gust
MPH
rain 1hr
in
rain 24hr
in
rain mn
in
humidity
%
barometer
mb
20260504234703 81 160 0.0 3.0 0.00 0.00 0.00 65 1008.3
20260504233203 80 171 2.0 7.0 0.00 0.00 0.00 63 1008.4
20260504232704 80 184 0.0 0.0 0.00 0.00 0.00 63 1008.4
20260504232203 80 188 0.0 3.0 0.00 0.00 0.00 63 1008.4
20260504231703 81 151 1.0 9.0 0.00 0.00 0.00 63 1008.5
20260504231203 81 183 1.0 6.0 0.00 0.00 0.00 62 1008.6
20260504230703 81 148 1.0 8.0 0.00 0.00 0.00 61 1008.6
20260504230204 81 157 1.0 7.0 0.00 0.00 0.00 61 1008.6
20260504225704 82 148 0.0 1.0 0.00 0.00 0.00 61 1008.6
20260504225203 82 169 1.0 8.0 0.00 0.00 0.00 62 1008.7
20260504224704 81 119 1.0 7.0 0.00 0.00 0.00 62 1008.8
20260504223703 81 182 0.0 0.0 0.00 0.00 0.00 61 1008.9
20260504222704 82 173 1.0 5.0 0.00 0.00 0.00 62 1009.1
20260504222203 81 194 1.0 6.0 0.00 0.00 0.00 63 1009.1
20260504221703 81 150 1.0 6.0 0.00 0.00 0.00 61 1009.2
20260504221203 82 164 2.0 8.0 0.00 0.00 0.00 60 1009.1
20260504220703 82 160 1.0 8.0 0.00 0.00 0.00 62 1009.1
20260504220203 82 200 1.0 7.0 0.00 0.00 0.00 63 1009.0
20260504215704 81 187 0.0 0.0 0.00 0.00 0.00 63 1009.1
20260504215204 81 187 1.0 5.0 0.00 0.00 0.00 62 1009.1
20260504214703 81 177 0.0 3.0 0.00 0.00 0.00 62 1009.2
20260504214204 81 168 1.0 6.0 0.00 0.00 0.00 61 1009.3
20260504213703 82 190 1.0 8.0 0.00 0.00 0.00 60 1009.4
20260504213203 82 190 2.0 8.0 0.00 0.00 0.00 60 1009.5
20260504212704 83 134 1.0 6.0 0.00 0.00 0.00 59 1009.5
20260504212203 83 176 1.0 5.0 0.00 0.00 0.00 59 1009.5
20260504211703 82 180 3.0 8.0 0.00 0.00 0.00 60 1009.6
20260504210703 83 161 2.0 8.0 0.00 0.00 0.00 58 1009.9
20260504210204 83 194 1.0 6.0 0.00 0.00 0.00 60 1009.9
20260504205704 83 152 1.0 9.0 0.00 0.00 0.00 60 1009.9
20260504205203 83 179 1.0 7.0 0.00 0.00 0.00 60 1010.1
20260504204704 82 175 1.0 6.0 0.00 0.00 0.00 62 1010.2
20260504204204 82 184 1.0 6.0 0.00 0.00 0.00 60 1010.3
20260504203704 82 143 1.0 7.0 0.00 0.00 0.00 59 1010.4
20260504203203 82 164 1.0 7.0 0.00 0.00 0.00 60 1010.5
20260504202704 82 188 2.0 12.0 0.00 0.00 0.00 60 1010.6
20260504202203 82 168 0.0 5.0 0.00 0.00 0.00 61 1010.7
20260504201703 82 166 1.0 7.0 0.00 0.00 0.00 60 1010.6
20260504201204 82 170 0.0 3.0 0.00 0.00 0.00 62 1010.8
20260504200703 82 187 1.0 10.0 0.00 0.00 0.00 62 1010.8
20260504200204 81 157 1.0 5.0 0.00 0.00 0.00 62 1010.9
20260504195204 80 185 0.0 3.0 0.00 0.00 0.00 62 1011.1
20260504194204 81 143 2.0 7.0 0.00 0.00 0.00 62 1011.2
20260504193704 81 129 1.0 8.0 0.00 0.00 0.00 61 1011.4
20260504193203 81 165 0.0 3.0 0.00 0.00 0.00 61 1011.4
20260504192703 81 184 2.0 6.0 0.00 0.00 0.00 62 1011.6
20260504192203 81 105 0.0 0.0 0.00 0.00 0.00 60 1011.6
20260504191703 81 158 1.0 6.0 0.00 0.00 0.00 60 1011.6
20260504190704 81 164 1.0 6.0 0.00 0.00 0.00 61 1011.7
20260504190204 80 181 1.0 5.0 0.00 0.00 0.00 62 1011.5
20260504185704 80 143 2.0 10.0 0.00 0.00 0.00 60 1011.6
20260504184704 80 191 1.0 8.0 0.00 0.00 0.00 62 1011.9
20260504184204 80 181 3.0 7.0 0.00 0.00 0.00 62 1012.2
20260504183704 80 160 0.0 2.0 0.00 0.00 0.00 64 1012.2
20260504183203 80 191 2.0 6.0 0.00 0.00 0.00 63 1012.3
20260504182703 80 167 0.0 5.0 0.00 0.00 0.00 63 1012.3
20260504181703 79 147 1.0 5.0 0.00 0.00 0.00 65 1012.3
20260504180704 78 167 1.0 6.0 0.00 0.00 0.00 65 1012.5
20260504175704 77 180 2.0 8.0 0.00 0.00 0.00 65 1012.6
20260504175204 78 191 0.0 9.0 0.00 0.00 0.00 66 1012.9
20260504174703 78 169 2.0 6.0 0.00 0.00 0.00 65 1013.2
20260504174204 78 181 0.0 6.0 0.00 0.00 0.00 66 1013.1
20260504173703 78 168 2.0 8.0 0.00 0.00 0.00 64 1013.3
20260504173204 78 175 0.0 0.0 0.00 0.00 0.00 65 1013.4
20260504172703 78 186 2.0 9.0 0.00 0.00 0.00 66 1013.4
20260504172204 78 175 3.0 7.0 0.00 0.00 0.00 66 1013.4
20260504171703 77 153 2.0 7.0 0.00 0.00 0.00 67 1013.3
20260504171204 77 181 0.0 6.0 0.00 0.00 0.00 66 1013.4
20260504170703 77 177 1.0 8.0 0.00 0.00 0.00 69 1013.5
20260504170204 76 171 1.0 8.0 0.00 0.00 0.00 68 1013.7
20260504160204 74 181 3.0 9.0 0.00 0.00 0.00 71 1014.0
20260504150703 72 193 0.0 6.0 0.00 0.00 0.00 74 1014.4
20260504141204 67 195 0.0 3.0 0.00 0.00 0.00 78 1014.6
20260504140704 66 187 0.0 2.0 0.00 0.00 0.00 80 1014.6
20260504140204 66 173 0.0 0.0 0.00 0.00 0.00 80 1014.6
20260504130704 61 184 0.0 0.0 0.00 0.00 0.00 89 1014.7
20260504130203 60 184 0.0 0.0 0.00 0.00 0.00 90 1014.8
20260504120204 58 184 0.0 0.0 0.00 0.00 0.00 91 1014.1
20260504110704 58 184 0.0 0.0 0.00 0.00 0.00 89 1014.3
20260504100203 59 184 0.0 0.0 0.00 0.00 0.00 85 1014.6
20260504081703 62 184 0.0 0.0 0.00 0.00 0.00 81 1015.0
20260504081204 62 184 0.0 0.0 0.00 0.00 0.00 80 1014.9
20260504080703 62 184 0.0 0.0 0.00 0.00 0.00 80 1015.0
20260504080204 63 184 0.0 0.0 0.00 0.00 0.00 79 1015.2
20260504070203 64 184 0.0 0.0 0.00 0.00 0.00 76 1016.1
20260504060204 65 188 0.0 0.0 0.00 0.00 0.00 74 1016.9
20260504050703 65 177 0.0 0.0 0.00 0.00 0.00 73 1017.0
20260504050203 65 183 0.0 2.0 0.00 0.00 0.00 73 1017.0
20260504045703 65 187 0.0 0.0 0.00 0.00 0.00 73 1017.1
20260504044203 65 187 0.0 3.0 0.00 0.00 0.00 72 1017.1
20260504043703 65 185 0.0 3.0 0.00 0.00 0.00 72 1017.2
20260504043203 65 173 0.0 2.0 0.00 0.00 0.00 72 1017.3
20260504042703 65 165 0.0 0.0 0.00 0.00 0.00 72 1017.3
20260504042204 66 165 0.0 0.0 0.00 0.00 0.00 73 1017.2
20260504041703 66 165 0.0 0.0 0.00 0.00 0.00 72 1017.2
20260504041203 66 165 0.0 0.0 0.00 0.00 0.00 72 1017.2
20260504040704 66 167 0.0 0.0 0.00 0.00 0.00 72 1017.3
20260504040204 66 167 0.0 0.0 0.00 0.00 0.00 72 1017.3
20260504035703 66 167 0.0 0.0 0.00 0.00 0.00 71 1017.4
20260504034204 66 167 0.0 0.0 0.00 0.00 0.00 70 1017.3
20260504033703 67 167 0.0 3.0 0.00 0.00 0.00 69 1017.3
20260504033204 67 191 0.0 1.0 0.00 0.00 0.00 69 1017.3
20260504032703 67 191 0.0 1.0 0.00 0.00 0.00 68 1017.3
20260504032203 67 191 0.0 3.0 0.00 0.00 0.00 68 1017.3
20260504031704 67 164 0.0 0.0 0.00 0.00 0.00 67 1017.2
20260504030203 67 164 0.0 0.0 0.00 0.00 0.00 66 1017.1
20260504025703 67 164 0.0 0.0 0.00 0.00 0.00 66 1017.0
20260504025203 67 164 0.0 0.0 0.00 0.00 0.00 66 1017.0
20260504024707 66 139 0.0 0.0 0.00 0.00 0.00 66 1017.0
20260504024203 66 139 0.0 0.0 0.00 0.00 0.00 65 1017.0
20260504023703 66 139 0.0 0.0 0.00 0.00 0.00 65 1017.0
20260504023203 67 139 0.0 0.0 0.00 0.00 0.00 67 1017.1
20260504022203 67 139 0.0 0.0 0.00 0.00 0.00 66 1017.0
20260504021703 68 139 0.0 0.0 0.00 0.00 0.00 65 1016.8
20260504021206 68 139 0.0 0.0 0.00 0.00 0.00 64 1016.7
20260504015704 69 139 0.0 0.0 0.00 0.00 0.00 61 1016.3
20260504015204 69 139 0.0 0.0 0.00 0.00 0.00 61 1016.2
20260504014704 69 139 0.0 0.0 0.00 0.00 0.00 60 1016.2
20260504014204 70 139 0.0 0.0 0.00 0.00 0.00 59 1016.2
20260504013703 70 139 0.0 0.0 0.00 0.00 0.00 59 1016.2
20260504013203 70 139 0.0 0.0 0.00 0.00 0.00 57 1016.2
20260504012703 71 139 0.0 0.0 0.00 0.00 0.00 58 1016.1
20260504011703 72 139 0.0 0.0 0.00 0.00 0.00 54 1016.2
20260504010703 72 139 0.0 0.0 0.00 0.00 0.00 55 1016.1
20260504010203 73 139 0.0 0.0 0.00 0.00 0.00 54 1016.1
20260504005704 73 139 0.0 0.0 0.00 0.00 0.00 52 1016.1
20260504005204 74 139 0.0 0.0 0.00 0.00 0.00 52 1016.1
20260504004704 74 139 0.0 0.0 0.00 0.00 0.00 51 1016.1
20260504004203 74 139 0.0 0.0 0.00 0.00 0.00 50 1016.1
20260504003703 75 139 0.0 0.0 0.00 0.00 0.00 47 1016.1
20260504002704 76 139 0.0 0.0 0.00 0.00 0.00 45 1016.4
20260504002204 76 139 0.0 0.0 0.00 0.00 0.00 45 1016.5
20260504001704 76 139 0.0 0.0 0.00 0.00 0.00 43 1016.4
20260504001204 76 139 0.0 0.0 0.00 0.00 0.00 44 1016.5
20260504000703 77 139 0.0 0.0 0.00 0.00 0.00 44 1016.6
20260504000204 77 139 0.0 0.0 0.00 0.00 0.00 44 1016.7
20260503235703 77 139 0.0 0.0 0.00 0.00 0.00 43 1016.7
20260503235203 77 139 0.0 0.0 0.00 0.00 0.00 43 1016.6